GW0416 Weather Reports


Display with metric or nautical units.
time (UTC)temp
F
wind
direction
speed
MPH
gust
MPH
rain 1hr
in
rain 24hr
in
rain mn
in
humidity
%
barometer
mb
20260902150038 65 259 5.0 10.0 0.00 0.00 0.00 53 1007.6
20260902144534 64 230 6.0 12.0 0.00 0.00 0.00 53 1007.9
20260902143037 62 248 2.0 4.0 0.00 0.00 0.00 56 1008.0
20260902141538 61 249 2.0 4.0 0.00 0.00 0.00 57 1008.1
20260902140039 60 230 3.0 6.0 0.00 0.00 0.00 58 1008.1
20260902134536 58 240 2.0 5.0 0.00 0.00 0.00 62 1007.9
20260902133038 57 239 4.0 7.0 0.00 0.00 0.00 63 1007.8
20260902131542 57 200 6.0 9.0 0.00 0.00 0.00 62 1007.8
20260902130049 56 217 4.0 10.0 0.00 0.00 0.00 65 1007.6
20260902124535 57 224 5.0 8.0 0.00 0.00 0.00 62 1007.6
20260902123035 55 305 3.0 8.0 0.00 0.00 0.00 66 1007.1
20260902121539 56 325 4.0 8.0 0.00 0.00 0.00 65 1007.3
20260902120034 56 304 6.0 9.0 0.00 0.00 0.00 66 1007.5
20260902114534 54 295 6.0 10.0 0.00 0.00 0.00 71 1007.8
20260902113035 55 280 8.0 13.0 0.00 0.00 0.00 69 1007.9
20260902111534 56 257 10.0 16.0 0.00 0.00 0.00 67 1008.0
20260902110042 56 238 10.0 16.0 0.00 0.00 0.00 67 1008.1
20260902104539 53 207 10.0 13.0 0.00 0.00 0.00 69 1008.0
20260902103038 54 205 7.0 10.0 0.00 0.00 0.00 65 1007.8
20260902101536 55 175 5.0 8.0 0.00 0.00 0.00 61 1008.0
20260902100035 56 156 4.0 7.0 0.00 0.00 0.00 61 1008.2
20260902094535 55 121 5.0 8.0 0.00 0.00 0.00 62 1008.2
20260902093040 58 130 0.0 5.0 0.00 0.00 0.00 56 1007.8
20260902091536 59 174 3.0 5.0 0.00 0.00 0.00 56 1008.2
20260902090037 57 127 2.0 4.0 0.00 0.00 0.00 59 1008.5
20260902084536 56 97 3.0 7.0 0.00 0.00 0.00 60 1008.6
20260902083039 58 92 5.0 7.0 0.00 0.00 0.00 57 1008.6
20260902081542 61 141 5.0 8.0 0.00 0.00 0.00 52 1008.7
20260902080047 61 139 4.0 9.0 0.00 0.00 0.00 52 1008.6
20260902074536 60 148 4.0 8.0 0.00 0.00 0.00 53 1008.6
20260902073037 61 128 5.0 7.0 0.00 0.00 0.00 51 1008.4
20260902071540 62 137 6.0 10.0 0.00 0.00 0.00 51 1008.5
20260902070034 61 153 4.0 8.0 0.00 0.00 0.00 51 1008.6
20260902064535 62 134 6.0 7.0 0.00 0.00 0.00 50 1008.7
20260902063037 63 135 4.0 8.0 0.00 0.00 0.00 48 1008.7
20260902061536 64 119 4.0 6.0 0.00 0.00 0.00 47 1008.9
20260902060038 64 143 3.0 5.0 0.00 0.00 0.00 47 1009.0
20260902054538 65 141 4.0 9.0 0.00 0.00 0.00 47 1009.0
20260902053038 64 155 5.0 9.0 0.00 0.00 0.00 47 1009.0
20260902051535 65 136 8.0 10.0 0.00 0.00 0.00 47 1009.0
20260902050036 64 134 7.0 11.0 0.00 0.00 0.00 47 1009.0
20260902044535 64 157 7.0 11.0 0.00 0.00 0.00 47 1009.1
20260902043042 66 146 6.0 11.0 0.00 0.00 0.00 46 1009.0
20260902041534 67 155 7.0 10.0 0.00 0.00 0.00 44 1009.1
20260902040038 68 135 8.0 11.0 0.00 0.00 0.00 43 1009.2
20260902034541 68 152 8.0 11.0 0.00 0.00 0.00 42 1009.3
20260902033038 68 146 8.0 10.0 0.00 0.00 0.00 40 1009.3
20260902031537 68 146 6.0 10.0 0.00 0.00 0.00 40 1009.4
20260902030045 69 157 5.0 9.0 0.00 0.00 0.00 38 1009.3
20260902024534 69 136 7.0 10.0 0.00 0.00 0.00 38 1009.2
20260902023042 70 147 7.0 10.0 0.00 0.00 0.00 38 1009.3
20260902021543 72 126 6.0 8.0 0.00 0.00 0.00 34 1009.1
20260902020037 74 131 7.0 9.0 0.00 0.00 0.00 32 1009.1
20260902014537 76 136 7.0 9.0 0.00 0.00 0.00 30 1009.1
20260902013034 78 132 7.0 10.0 0.00 0.00 0.00 28 1009.1
20260902011536 79 132 8.0 13.0 0.00 0.00 0.00 27 1009.0
20260902010034 81 161 8.0 13.0 0.00 0.00 0.00 24 1009.0
20260902004539 81 142 8.0 11.0 0.00 0.00 0.00 25 1009.1
20260902003037 81 128 7.0 12.0 0.00 0.00 0.00 25 1009.1
20260902001534 81 144 8.0 14.0 0.00 0.00 0.00 25 1009.3
20260902000037 81 129 11.0 16.0 0.00 0.00 0.00 25 1009.5
20260901234537 81 129 13.0 17.0 0.00 0.00 0.00 26 1009.4
20260901233036 81 153 11.0 16.0 0.00 0.00 0.00 26 1009.6
20260901231535 81 165 10.0 19.0 0.00 0.00 0.00 26 1009.8
20260901230039 81 165 11.0 22.0 0.00 0.00 0.00 26 1009.8
20260901224534 81 169 8.0 17.0 0.00 0.00 0.00 26 1010.0
20260901223038 82 172 10.0 19.0 0.00 0.00 0.00 26 1010.0
20260901221534 81 161 11.0 22.0 0.00 0.00 0.00 26 1010.3
20260901214533 80 179 10.0 18.0 0.00 0.00 0.00 26 1010.5
20260901213101 81 161 7.0 19.0 0.00 0.00 0.00 26 1010.7
20260901211537 80 173 9.0 20.0 0.00 0.00 0.00 27 1010.8
20260901210035 80 152 9.0 20.0 0.00 0.00 0.00 26 1011.0
20260901204539 80 155 13.0 20.0 0.00 0.00 0.00 26 1011.0
20260901203052 80 150 12.0 21.0 0.00 0.00 0.00 26 1011.2
20260901201535 80 142 12.0 22.0 0.00 0.00 0.00 27 1011.5
20260901200037 79 170 12.0 23.0 0.00 0.00 0.00 28 1011.6
20260901194542 78 150 15.0 23.0 0.00 0.00 0.00 29 1011.8
20260901193046 78 138 13.0 22.0 0.00 0.00 0.00 29 1011.9
20260901191535 78 138 17.0 28.0 0.00 0.00 0.00 29 1012.0
20260901190036 77 145 15.0 23.0 0.00 0.00 0.00 32 1012.1
20260901184534 77 142 16.0 26.0 0.00 0.00 0.00 31 1012.5
20260901183045 76 133 13.0 24.0 0.00 0.00 0.00 32 1012.6
20260901181537 75 135 15.0 22.0 0.00 0.00 0.00 35 1012.7
20260901180034 74 136 16.0 24.0 0.00 0.00 0.00 35 1012.9
20260901174534 73 153 13.0 20.0 0.00 0.00 0.00 38 1013.0
20260901173050 71 138 14.0 22.0 0.00 0.00 0.00 40 1013.2
20260901171540 69 146 13.0 24.0 0.00 0.00 0.00 42 1013.2
20260901170034 69 132 14.0 22.0 0.00 0.00 0.00 42 1013.4
20260901164536 69 155 16.0 23.0 0.00 0.00 0.00 43 1013.4
20260901163036 68 164 12.0 20.0 0.00 0.00 0.00 44 1013.5
20260901161537 67 145 11.0 18.0 0.00 0.00 0.00 45 1013.5
20260901160038 66 131 13.0 17.0 0.00 0.00 0.00 47 1013.6
20260901154538 65 147 8.0 14.0 0.00 0.00 0.00 48 1013.7
20260901153036 64 156 6.0 10.0 0.00 0.00 0.00 51 1013.9
20260901151534 64 171 5.0 9.0 0.00 0.00 0.00 53 1013.9